loading
|

SCOUT A DEB, 2141

Orbit data source: Space-Track

SCOUT A DEB, 2141 is space debris in LEO originally from a launch on Fri, 28 Jan 1966 UTC launched from the Air Force Western Test Range (AFWTR). Debris objects in space refer to the collection of defunct objects orbiting the Earth. Examples of debris include non-operational satellites, rocket bodies, and fragments generated from explosions, collisions, or faulty payload assembly.

Loading next visibility...
Next conjunction unknown
Loading greatness...
SCOUT A DEB details
Identifier
2141, 1966-005D
Orbit
LEO
Last TLE update21 hours ago
Origin
Flag of USUSN BuWeps (US)
ManufacturerUnknown
MissionSpacecraft
Bus & MotorUnknown bus, Unknown motor
MassUnknown
Launch date (UTC)
1966-01-28 (59 years ago)
Launch vehicleUnknown
Launch site
Air Force Western Test Range (AFWTR)
Object type
Payload
Rocket body
Debris
Shape & HBRUnknown
Radar Cross SectionSmall (<0.1 m²)

Expand to show TLE details & history

TLE from 21 hours ago
0 SCOUT A DEB
1  2141U 66005D   24285.88348208  .00003623  00000-0  21343-2 0  9996
2  2141  90.2088 243.0124 0114624 208.0134 151.4850 14.04571762982964
Epoch: 2024-10-11T21:12Z
Definitive object data (Epoch: 2024-10-11T21:12:12.851Z)
Latitude0.00002°
Longitude-95.98843°
Altitude954.352 km
Speed7.337 km/s
True Right ascension16h 12m 02s
True Declination0° 00' 00"
Sunlit
Object was in daylight at TLE epoch
Predictive object data (real-time)
Latitude73.67942°
Longitude-96.67775°
Altitude945.47 km
Speed7.358 km/s
Apparent Right ascension22h 53m 44s
Apparent Declination35° 50' 55"
Sunlit
Object is in daylight
Predictive observer data (real-time)
Local Sidereal Time12:31:24
Azimuth19.955° NNE
Elevation-10.971°
Doppler factor1
Orbital elements
Apogee958.115 km
Perigee791.839 km
Semi-major axis7,253.114 km
Eccentricity0.0114624
Inclination90.2088°
RAAN243.0124°
Arg. of periapsis208.0134°
True anomaly152.10424°
Mean anomaly151.485°
Eccentric anomaly151.79539°
Mean motion3.51363 °/min
BSTAR0.0021343
Period102.46 mins
No data available

SCOUT A DEB Visibility forecast

Observer location: 39.9160978°, -105.1181434

Span
Click to sort rows by Start time (UTC) header in descending order
Start Az.
Max El. time (UTC)
Max El. Az.
Max El.
End time (UTC)
End Az.
11 mins2024-10-12 21:14:39.294Z158.784° S2024-10-12 21:20:39.294Z62.621° ENE39.677°2024-10-12 21:25:39.294Z6.827° NNE
7 mins2024-10-12 22:59:39.294Z242.368° WSW2024-10-12 23:02:39.294Z276.706° WNW19.166°2024-10-12 23:06:39.294Z321.49° NNW
9 mins2024-10-13 09:42:39.294Z0.778° NNE2024-10-13 09:46:39.294Z328.352° NNW44.611°2024-10-13 09:51:39.294Z186.683° SSW